TimeCDT,TemperatureF,Dew PointF,Humidity,Sea Level PressureIn,VisibilityMPH,Wind Direction,Wind SpeedMPH,Gust SpeedMPH,PrecipitationIn,Events,Conditions,WindDirDegrees,DateUTC
12:53 AM,66.9,62.1,84,30.12,10.0,South,8.1,-,N/A,,Scattered Clouds,180,2012-10-12 05:53:00
1:53 AM,68.0,63.0,84,30.11,10.0,South,9.2,-,N/A,,Mostly Cloudy,190,2012-10-12 06:53:00
2:53 AM,69.8,64.4,83,30.10,10.0,South,10.4,-,N/A,,Overcast,190,2012-10-12 07:53:00
3:41 AM,68.0,64.4,88,30.09,10.0,South,6.9,-,N/A,Thunderstorm,Scattered Clouds,190,2012-10-12 08:41:00
3:53 AM,68.0,64.0,87,30.08,10.0,NE,4.6,-,N/A,,Scattered Clouds,40,2012-10-12 08:53:00
4:17 AM,64.4,60.8,88,30.12,9.0,NNE,12.7,20.7,N/A,,Overcast,30,2012-10-12 09:17:00
4:42 AM,64.4,60.8,88,30.13,10.0,NE,9.2,-,N/A,Thunderstorm,Overcast,50,2012-10-12 09:42:00
4:53 AM,64.9,61.0,87,30.11,10.0,NNE,11.5,-,0.01,Rain-Thunderstorm,Light Thunderstorms and Rain,30,2012-10-12 09:53:00
5:00 AM,62.6,60.8,94,30.16,1.2,North,12.7,-,0.39,Rain-Thunderstorm,Heavy Thunderstorms and Rain,10,2012-10-12 10:00:00
5:05 AM,62.6,60.8,94,30.14,0.5,NE,13.8,19.6,0.78,Fog-Rain-Thunderstorm,Heavy Thunderstorms and Rain,50,2012-10-12 10:05:00
5:12 AM,62.6,62.6,100,30.15,0.8,ENE,9.2,19.6,1.03,Rain-Thunderstorm,Heavy Thunderstorms and Rain,60,2012-10-12 10:12:00
5:17 AM,62.6,62.6,100,30.14,1.0,ENE,10.4,17.3,1.20,Rain-Thunderstorm,Heavy Thunderstorms and Rain,70,2012-10-12 10:17:00
5:44 AM,62.6,62.6,100,30.16,1.5,East,5.8,-,1.67,Rain-Thunderstorm,Heavy Thunderstorms and Rain,80,2012-10-12 10:44:00
5:53 AM,63.0,62.1,97,30.14,1.8,SE,5.8,-,1.79,Rain-Thunderstorm,Heavy Thunderstorms and Rain,130,2012-10-12 10:53:00
5:56 AM,62.6,62.6,100,30.15,2.0,East,5.8,-,0.02,Rain-Thunderstorm,Heavy Thunderstorms and Rain,100,2012-10-12 10:56:00
6:00 AM,62.6,62.6,100,30.16,3.0,ENE,4.6,-,0.03,Rain,Rain,70,2012-10-12 11:00:00
6:12 AM,62.6,62.6,100,30.16,5.0,ENE,4.6,-,0.07,Rain-Thunderstorm,Light Rain,60,2012-10-12 11:12:00
6:23 AM,62.6,62.6,100,30.19,2.5,NNE,4.6,-,0.16,Rain-Thunderstorm,Light Rain,20,2012-10-12 11:23:00
6:32 AM,62.6,62.6,100,30.16,1.5,East,10.4,-,0.31,Rain-Thunderstorm,Thunderstorms and Rain,90,2012-10-12 11:32:00
6:42 AM,62.6,62.6,100,30.16,2.5,ENE,8.1,-,0.38,Rain-Thunderstorm,Thunderstorms and Rain,70,2012-10-12 11:42:00
6:46 AM,62.6,62.6,100,30.16,3.0,ENE,9.2,-,0.43,Rain-Thunderstorm,Thunderstorms and Rain,70,2012-10-12 11:46:00
6:53 AM,62.1,61.0,96,30.16,3.0,NE,10.4,-,0.46,Rain-Thunderstorm,Thunderstorms and Rain,50,2012-10-12 11:53:00
7:03 AM,60.8,60.8,100,30.18,6.0,NE,11.5,-,0.01,Rain-Thunderstorm,Thunderstorms and Rain,40,2012-10-12 12:03:00
7:25 AM,60.8,59.0,94,30.18,10.0,ENE,12.7,-,0.02,Rain,Light Rain,70,2012-10-12 12:25:00
7:53 AM,60.1,59.0,96,30.18,9.0,East,9.2,-,0.03,Rain,Light Rain,90,2012-10-12 12:53:00
8:53 AM,60.8,59.0,94,30.20,9.0,East,9.2,-,N/A,,Overcast,80,2012-10-12 13:53:00
9:53 AM,60.1,59.0,96,30.20,8.0,East,9.2,-,N/A,,Overcast,100,2012-10-12 14:53:00
10:53 AM,60.1,59.0,96,30.23,4.0,NE,4.6,-,0.03,Rain,Light Rain,40,2012-10-12 15:53:00
11:53 AM,60.8,60.8,100,30.23,4.0,East,5.8,-,N/A,,Overcast,80,2012-10-12 16:53:00
12:53 PM,63.0,61.0,93,30.19,6.0,Variable,6.9,-,N/A,,Overcast,0,2012-10-12 17:53:00
1:53 PM,64.9,62.1,90,30.17,10.0,East,4.6,-,N/A,,Overcast,80,2012-10-12 18:53:00
2:53 PM,66.9,63.0,87,30.14,10.0,East,5.8,-,N/A,,Overcast,80,2012-10-12 19:53:00
3:53 PM,70.0,64.0,81,30.14,10.0,East,3.5,-,N/A,,Scattered Clouds,100,2012-10-12 20:53:00
4:53 PM,69.8,64.4,83,30.15,10.0,Calm,Calm,-,N/A,,Clear,0,2012-10-12 21:53:00
6:53 PM,66.0,61.0,84,30.13,10.0,SSE,3.5,-,0.00,,Partly Cloudy,160,2012-10-12 23:53:00
7:53 PM,66.0,61.0,84,30.12,10.0,SSE,4.6,-,N/A,,Partly Cloudy,150,2012-10-13 00:53:00
8:53 PM,63.0,62.1,97,30.13,10.0,East,3.5,-,N/A,,Mostly Cloudy,80,2012-10-13 01:53:00
9:28 PM,62.6,60.8,94,30.14,10.0,East,6.9,-,N/A,,Overcast,90,2012-10-13 02:28:00
9:51 PM,62.6,60.8,94,30.13,10.0,ESE,6.9,-,N/A,,Overcast,110,2012-10-13 02:51:00
9:53 PM,63.0,61.0,93,30.12,10.0,ESE,5.8,-,N/A,,Overcast,120,2012-10-13 02:53:00
10:11 PM,62.6,60.8,94,30.12,10.0,ESE,5.8,-,N/A,,Mostly Cloudy,120,2012-10-13 03:11:00
10:53 PM,63.0,61.0,93,30.12,10.0,ESE,4.6,-,N/A,,Clear,120,2012-10-13 03:53:00
11:53 PM,61.0,60.1,97,30.10,10.0,East,5.8,-,N/A,,Clear,100,2012-10-13 04:53:00